Epoch,demod_status_bits,ebno,lock_status,signal_level,viterbi_ber
1664610466,C;S;V;F,13.0,0x00c000,-38.7,3.03e-7
1664610467,C;S;V;F,12.7,0x00c000,-38.7,3.03e-7
1664610468,C;S;V;F,13.0,0x00c000,-38.4,1.51e-7
1664610469,C;S;V;F,13.1,0x00c000,-38.3,0.00e-0
1664610470,C;S;V;F,13.1,0x00c000,-38.7,0.00e-0
1664610471,C;S;V;F,12.9,0x00c000,-38.5,
1664610472,C;S;V;F,13.2,0x00c000,-38.3,3.03e-7
1664610473,,13.4,0x00c000,-38.4,3.03e-7
1664610474,C;S;V;F,13.6,0x00c000,-38.0,1.51e-7
1664610475,C;S;V;F,,0x00c000,-38.2,1.51e-7
1664610476,C;S;V;F,13.4,0x00c000,-38.4,0.00e-0
1664610477,C;S;V;F,13.2,0x00c000,,1.51e-7
1664610478,C;S;V;F,13.2,0x00c000,-38.4,0.00e-0
1664610479,C;S;V;F,13.4,0x00c000,-38.3,0.00e-0
1664610480,C;S;V;F,13.5,0x00c000,-38.3,0.00e-0
1664610481,C;S;V;F,13.3,0x00c000,-38.0,0.00e-0
1664610482,C;S;V;F,13.4,0x00c000,-38.0,0.00e-0
1664610483,C;S;V;F,13.6,0x00c000,-38.0,0.00e-0
1664610484,C;S;V;F,13.6,0x00c000,-38.0,0.00e-0
1664610485,,13.8,0x00c000,-37.9,
1664610486,C;S;V;F,13.7,0x00c000,-38.1,0.00e-0
1664610487,C;S;V;F,13.7,0x00c000,-38.0,0.00e-0
1664610488,C;S;V;F,,0x00c000,-37.6,0.00e-0
1664610489,C;S;V;F,14.0,0x00c000,,0.00e-0
1664610490,C;S;V;F,14.1,0x00c000,-37.8,0.00e-0
1664610491,C;S;V;F,13.8,0x00c000,-37.8,0.00e-0
1664610492,C;S;V;F,13.9,0x00c000,-37.8,0.00e-0
1664610493,C;S;V;F,13.8,0x00c000,-37.6,0.00e-0
1664610494,C;S;V;F,14.1,0x00c000,-37.8,0.00e-0
1664610495,C;S;V;F,14.2,0x00c000,-37.8,0.00e-0
1664610496,C;S;V;F,13.9,0x00c000,-37.9,
1664610497,,14.3,0x00c000,-37.6,0.00e-0
1664610498,C;S;V;F,14.2,0x00c000,-37.6,0.00e-0
1664610499,C;S;V;F,,0x00c000,-37.5,0.00e-0
1664610500,C;S;V;F,14.2,0x00c000,,0.00e-0
1664610501,C;S;V;F,14.4,0x00c000,-37.6,0.00e-0
1664610502,C;S;V;F,14.4,0x00c000,-37.2,0.00e-0
1664610503,C;S;V;F,14.5,0x00c000,-37.3,0.00e-0
1664610505,,14.5,0x00c000,-37.1,
1664610506,C;S;V;F,,0x00c000,-37.2,0.00e-0
1664610507,C;S;V;F,14.5,0x00c000,,0.00e-0
1664610508,C;S;V;F,14.8,0x00c000,-37.2,0.00e-0
1664610509,C;S;V;F,14.5,0x00c000,-37.2,0.00e-0
1664610510,C;S;V;F,14.6,0x00c000,-37.2,0.00e-0
1664610511,C;S;V;F,14.8,0x00c000,-37.1,0.00e-0
1664610512,C;S;V;F,15.1,0x00c000,-36.9,0.00e-0
1664610513,C;S;V;F,14.7,0x00c000,-37.0,0.00e-0
1664610514,C;S;V;F,14.7,0x00c000,-37.1,0.00e-0
1664610515,C;S;V;F,14.9,0x00c000,-36.8,0.00e-0
1664610516,C;S;V;F,14.9,0x00c000,-37.0,0.00e-0
1664610517,C;S;V;F,15.0,0x00c000,-36.7,0.00e-0
1664610518,,15.1,0x00c000,-36.8,
1664610519,C;S;V;F,14.9,0x00c000,-36.7,0.00e-0
1664610520,C;S;V;F,15.3,0x00c000,-36.7,0.00e-0
1664610521,C;S;V;F,,0x00c000,-36.5,0.00e-0
1664610522,C;S;V;F,15.2,0x00c000,,0.00e-0
1664610523,C;S;V;F,15.2,0x00c000,-36.6,0.00e-0
1664610524,C;S;V;F,15.3,0x00c000,-36.4,0.00e-0
1664610525,C;S;V;F,15.3,0x00c000,-36.4,0.00e-0
1664610526,C;S;V;F,15.4,0x00c000,-36.4,0.00e-0
1664610527,C;S;V;F,15.3,0x00c000,-36.4,0.00e-0
1664610530,,,0x00c000,-36.3,
1664610531,C;S;V;F,15.6,0x00c000,,0.00e-0
1664610532,C;S;V;F,15.7,0x00c000,-36.3,0.00e-0
1664610533,C;S;V;F,15.9,0x00c000,-36.3,0.00e-0
1664610534,C;S;V;F,15.6,0x00c000,-36.2,0.00e-0
1664610535,C;S;V;F,15.7,0x00c000,-36.3,0.00e-0
1664610536,C;S;V;F,15.6,0x00c000,-36.1,
1664610537,,15.8,0x00c000,-36.2,0.00e-0
1664610538,C;S;V;F,15.9,0x00c000,-36.0,0.00e-0
1664610539,C;S;V;F,,0x00c000,-35.9,0.00e-0
1664610540,C;S;V;F,15.9,0x00c000,-35.7,0.00e-0
1664610541,C;S;V;F,15.9,0x00c000,,0.00e-0
1664610542,C;S;V;F,16.0,0x00c000,-36.0,0.00e-0
1664610543,C;S;V;F,15.9,0x00c000,-36.0,0.00e-0
1664610544,C;S;V;F,16.1,0x00c000,-35.9,0.00e-0
1664610545,C;S;V;F,15.9,0x00c000,-35.8,0.00e-0
1664610546,C;S;V;F,16.1,0x00c000,-35.9,0.00e-0
1664610547,C;S;V;F,16.0,0x00c000,-35.8,0.00e-0
1664610548,C;S;V;F,15.9,0x00c000,-35.7,0.00e-0
1664610549,C;S;V;F,16.0,0x00c000,-35.7,
1664610550,,16.1,0x00c000,-35.6,0.00e-0
1664610551,C;S;V;F,16.3,0x00c000,-35.5,0.00e-0
1664610552,C;S;V;F,16.2,0x00c000,-35.9,0.00e-0
1664610553,C;S;V;F,,0x00c000,-35.8,0.00e-0
1664610554,C;S;V;F,15.9,0x00c000,,0.00e-0
1664610555,C;S;V;F,16.1,0x00c000,-35.7,0.00e-0
1664610556,C;S;V;F,16.1,0x00c000,-35.6,0.00e-0
1664610557,C;S;V;F,16.2,0x00c000,-35.7,0.00e-0
1664610558,C;S;V;F,16.4,0x00c000,-35.6,0.00e-0
1664610559,C;S;V;F,16.3,0x00c000,-35.6,0.00e-0
1664610560,C;S;V;F,16.2,0x00c000,-35.5,0.00e-0
1664610561,C;S;V;F,15.8,0x00c000,-35.4,0.00e-0
1664610562,C;S;V;F,16.3,0x00c000,-35.5,
1664610563,,16.2,0x00c000,-35.6,0.00e-0
1664610564,C;S;V;F,16.3,0x00c000,-35.5,0.00e-0
1664610565,C;S;V;F,,0x00c000,-35.5,0.00e-0
1664610566,C;S;V;F,16.4,0x00c000,,0.00e-0
1664610568,,16.2,0x00c000,-35.4,
1664610569,C;S;V;F,16.4,0x00c000,-35.5,0.00e-0
1664610570,C;S;V;F,16.4,0x00c000,-35.4,0.00e-0
1664610571,C;S;V;F,,0x00c000,-35.5,0.00e-0
1664610572,C;S;V;F,16.5,0x00c000,,0.00e-0
1664610573,C;S;V;F,16.5,0x00c000,-35.5,0.00e-0
1664610574,C;S;V;F,16.4,0x00c000,-35.5,0.00e-0
1664610575,C;S;V;F,16.5,0x00c000,-35.4,0.00e-0
1664610576,C;S;V;F,16.5,0x00c000,-35.4,0.00e-0
1664610577,C;S;V;F,16.3,0x00c000,-35.2,0.00e-0
1664610578,C;S;V;F,16.5,0x00c000,-35.4,0.00e-0
1664610579,C;S;V;F,16.5,0x00c000,-35.5,0.00e-0
1664610580,,16.6,0x00c000,-35.5,
1664610581,C;S;V;F,16.6,0x00c000,-35.4,0.00e-0
1664610582,C;S;V;F,16.6,0x00c000,-35.2,0.00e-0
1664610583,C;S;V;F,,0x00c000,-35.2,0.00e-0
1664610584,C;S;V;F,16.6,0x00c000,,0.00e-0
1664610585,C;S;V;F,16.5,0x00c000,-35.5,0.00e-0
1664610586,C;S;V;F,16.5,0x00c000,-35.2,0.00e-0
1664610587,C;S;V;F,16.6,0x00c000,-35.3,0.00e-0
1664610588,C;S;V;F,16.6,0x00c000,-35.5,
1664610589,,16.5,0x00c000,-35.3,0.00e-0
1664610590,C;S;V;F,16.5,0x00c000,-35.5,0.00e-0
1664610591,C;S;V;F,16.6,0x00c000,-35.2,0.00e-0
1664610592,C;S;V;F,,0x00c000,-35.1,0.00e-0
1664610593,C;S;V;F,16.8,0x00c000,-35.3,0.00e-0
1664610594,C;S;V;F,16.7,0x00c000,-35.4,0.00e-0
1664610595,C;S;V;F,16.7,0x00c000,,0.00e-0
1664610596,C;S;V;F,16.4,0x00c000,-35.5,0.00e-0
1664610597,C;S;V;F,16.4,0x00c000,-35.5,0.00e-0
1664610598,C;S;V;F,16.5,0x00c000,-35.4,0.00e-0
1664610599,C;S;V;F,16.5,0x00c000,-35.6,0.00e-0
1664610600,C;S;V;F,16.6,0x00c000,-35.6,0.00e-0
1664610601,C;S;V;F,16.7,0x00c000,-35.4,0.00e-0
1664610602,C;S;V;F,16.6,0x00c000,-35.4,
1664610603,C;S;V;F,16.7,0x00c000,-35.5,0.00e-0
1664610604,,16.7,0x00c000,-35.6,0.00e-0
1664610605,C;S;V;F,,0x00c000,-35.4,0.00e-0
1664610606,C;S;V;F,16.7,0x00c000,,0.00e-0
1664610607,C;S;V;F,16.5,0x00c000,-35.6,0.00e-0
1664610608,C;S;V;F,16.7,0x00c000,-35.6,0.00e-0
1664610609,C;S;V;F,16.5,0x00c000,-35.5,0.00e-0
1664610610,C;S;V;F,16.6,0x00c000,-35.5,0.00e-0
1664610611,C;S;V;F,16.7,0x00c000,-35.6,0.00e-0
1664610612,C;S;V;F,16.5,0x00c000,-35.5,0.00e-0
1664610613,C;S;V;F,16.7,0x00c000,-35.5,0.00e-0
1664610614,,16.7,0x00c000,-35.6,
1664610615,C;S;V;F,16.7,0x00c000,-35.5,0.00e-0
1664610616,C;S;V;F,,0x00c000,-35.5,0.00e-0
1664610617,C;S;V;F,16.7,0x00c000,-35.5,0.00e-0
1664610618,C;S;V;F,16.7,0x00c000,,0.00e-0
1664610619,C;S;V;F,16.7,0x00c000,-35.5,0.00e-0
1664610620,C;S;V;F,16.6,0x00c000,-35.6,0.00e-0
1664610621,C;S;V;F,16.7,0x00c000,-35.6,0.00e-0
1664610622,C;S;V;F,16.7,0x00c000,-35.6,0.00e-0
1664610623,C;S;V;F,16.5,0x00c000,-35.6,0.00e-0
1664610624,C;S;V;F,16.3,0x00c000,-35.6,0.00e-0
1664610625,,16.6,0x00c000,-35.5,
1664610626,C;S;V;F,16.6,0x00c000,-35.6,0.00e-0
1664610627,C;S;V;F,,0x00c000,-35.6,0.00e-0
1664610628,C;S;V;F,16.7,0x00c000,,0.00e-0
1664610629,C;S;V;F,16.4,0x00c000,-35.5,0.00e-0
1664610631,C;S;V;F,16.6,0x00c000,-35.6,0.00e-0
1664610632,C;S;V;F,16.6,0x00c000,-35.6,0.00e-0
1664610633,C;S;V;F,16.6,0x00c000,-35.6,0.00e-0
1664610634,C;S;V;F,16.4,0x00c000,-35.6,
1664610635,,16.6,0x00c000,-35.6,0.00e-0
1664610636,C;S;V;F,16.6,0x00c000,-35.6,0.00e-0
1664610637,C;S;V;F,16.4,0x00c000,-35.9,0.00e-0
1664610638,C;S;V;F,,0x00c000,-35.7,0.00e-0
1664610639,C;S;V;F,16.7,0x00c000,,0.00e-0
1664610640,C;S;V;F,16.5,0x00c000,-35.6,0.00e-0
1664610641,C;S;V;F,16.6,0x00c000,-35.5,0.00e-0
1664610642,C;S;V;F,16.5,0x00c000,-35.5,0.00e-0
1664610643,C;S;V;F,16.7,0x00c000,-35.6,0.00e-0
1664610644,C;S;V;F,16.6,0x00c000,-35.6,0.00e-0
1664610645,C;S;V;F,16.7,0x00c000,-35.5,
1664610646,,16.6,0x00c000,-35.6,0.00e-0
1664610647,C;S;V;F,16.6,0x00c000,-35.6,0.00e-0
1664610648,C;S;V;F,16.8,0x00c000,-35.5,0.00e-0
1664610649,C;S;V;F,16.7,0x00c000,-35.5,0.00e-0
1664610650,C;S;V;F,,0x00c000,-35.4,0.00e-0
1664610651,C;S;V;F,16.7,0x00c000,-35.5,0.00e-0
1664610652,C;S;V;F,16.7,0x00c000,,0.00e-0
1664610653,C;S;V;F,16.6,0x00c000,-35.5,0.00e-0
1664610654,C;S;V;F,16.7,0x00c000,-35.7,0.00e-0
1664610655,C;S;V;F,16.5,0x00c000,-35.7,0.00e-0
1664610656,C;S;V;F,16.4,0x00c000,-35.8,0.00e-0
1664610657,C;S;V;F,16.3,0x00c000,-35.9,0.00e-0
1664610658,C;S;V;F,16.2,0x00c000,-36.1,0.00e-0
1664610659,C;S;V;F,15.9,0x00c000,-36.2,
1664610660,,16.1,0x00c000,-36.3,0.00e-0
1664610661,C;S;V;F,16.1,0x00c000,-36.4,0.00e-0
1664610662,C;S;V;F,,0x00c000,-36.3,0.00e-0
1664610663,C;S;V;F,15.7,0x00c000,-36.5,0.00e-0
1664610664,C;S;V;F,15.9,0x00c000,,0.00e-0
1664610665,C;S;V;F,15.8,0x00c000,-36.5,0.00e-0
1664610666,C;S;V;F,15.6,0x00c000,-36.7,0.00e-0
1664610667,C;S;V;F,15.5,0x00c000,-36.8,0.00e-0
1664610668,C;S;V;F,15.6,0x00c000,-36.9,0.00e-0
1664610669,C;S;V;F,15.4,0x00c000,-36.9,0.00e-0
1664610670,C;S;V;F,15.3,0x00c000,-37.1,0.00e-0
1664610671,,15.2,0x00c000,-37.2,
1664610672,C;S;V;F,15.3,0x00c000,-37.2,0.00e-0
1664610673,C;S;V;F,15.3,0x00c000,-37.5,0.00e-0
1664610674,C;S;V;F,,0x00c000,,0.00e-0
1664610675,C;S;V;F,14.9,0x00c000,-37.6,0.00e-0
1664610676,C;S;V;F,15.1,0x00c000,-37.6,0.00e-0
1664610677,C;S;V;F,14.8,0x00c000,-37.6,0.00e-0
1664610678,C;S;V;F,15.0,0x00c000,-37.5,0.00e-0
1664610679,C;S;V;F,15.0,0x00c000,-37.5,0.00e-0
1664610680,C;S;V;F,14.8,0x00c000,-37.6,0.00e-0
1664610681,C;S;V;F,15.0,0x00c000,-37.7,
1664610682,,14.8,0x00c000,-37.8,0.00e-0
1664610683,C;S;V;F,14.8,0x00c000,-37.7,0.00e-0
1664610684,C;S;V;F,,0x00c000,-37.8,0.00e-0
1664610685,C;S;V;F,15.0,0x00c000,,0.00e-0
1664610686,C;S;V;F,14.7,0x00c000,-37.5,0.00e-0
1664610687,C;S;V;F,14.9,0x00c000,-37.6,0.00e-0
1664610688,C;S;V;F,14.7,0x00c000,-37.6,0.00e-0
1664610689,C;S;V;F,14.9,0x00c000,-37.8,0.00e-0
1664610690,,14.8,0x00c000,-37.6,
1664610691,C;S;V;F,14.9,0x00c000,-37.5,0.00e-0
1664610692,C;S;V;F,,0x00c000,,0.00e-0
1664610693,,,0x00c000,-37.1,
1664610694,C;S;V;F,15.3,0x00c000,,0.00e-0
1664610695,C;S;V;F,15.5,0x00c000,-36.8,0.00e-0
1664610696,C;S;V;F,15.7,0x00c000,-36.4,0.00e-0
1664610697,C;S;V;F,15.9,0x00c000,-36.3,0.00e-0
1664610698,C;S;V;F,16.5,0x00c000,-36.0,0.00e-0
1664610699,C;S;V;F,16.5,0x00c000,-35.9,0.00e-0
1664610700,C;S;V;F,16.6,0x00c000,-35.7,0.00e-0
1664610701,,16.5,0x00c000,-35.6,
1664610702,C;S;V;F,16.7,0x00c000,-35.5,0.00e-0
1664610703,C;S;V;F,,0x00c000,-35.2,0.00e-0
1664610704,C;S;V;F,17.0,0x00c000,-35.2,0.00e-0
1664610705,C;S;V;F,17.1,0x00c000,,0.00e-0
1664610706,C;S;V;F,17.3,0x00c000,-34.9,0.00e-0
1664610707,C;S;V;F,17.3,0x00c000,-34.8,0.00e-0
1664610708,C;S;V;F,17.2,0x00c000,-34.7,0.00e-0
1664610709,C;S;V;F,17.5,0x00c000,-34.6,0.00e-0
1664610710,C;S;V;F,17.8,0x00c000,-34.3,0.00e-0
1664610711,C;S;V;F,17.6,0x00c000,-34.4,
1664610712,,17.8,0x00c000,-34.2,0.00e-0
1664610713,C;S;V;F,17.7,0x00c000,-34.2,0.00e-0
1664610714,C;S;V;F,17.7,0x00c000,-34.3,0.00e-0
1664610715,C;S;V;F,,0x00c000,-34.1,0.00e-0
1664610716,C;S;V;F,17.9,0x00c000,,0.00e-0
1664610717,C;S;V;F,17.9,0x00c000,-34.0,0.00e-0
1664610718,C;S;V;F,18.0,0x00c000,-33.9,0.00e-0
1664610719,C;S;V;F,18.1,0x00c000,-33.7,0.00e-0
1664610720,C;S;V;F,18.2,0x00c000,-33.6,0.00e-0
1664610721,C;S;V;F,18.3,0x00c000,-33.7,0.00e-0
1664610722,C;S;V;F,18.1,0x00c000,-33.8,0.00e-0
1664610723,C;S;V;F,18.0,0x00c000,-34.1,
1664610724,,17.8,0x00c000,-34.4,0.00e-0
1664610725,C;S;V;F,17.5,0x00c000,-34.7,0.00e-0
1664610726,C;S;V;F,17.3,0x00c000,-34.9,0.00e-0
1664610727,C;S;V;F,,0x00c000,-35.2,0.00e-0
1664610728,C;S;V;F,17.3,0x00c000,,0.00e-0
1664610729,C;S;V;F,17.2,0x00c000,-34.8,0.00e-0
1664610730,C;S;V;F,17.5,0x00c000,-34.9,0.00e-0
1664610731,C;S;V;F,17.4,0x00c000,-34.8,0.00e-0
1664610732,C;S;V;F,17.5,0x00c000,-34.8,0.00e-0
1664610733,C;S;V;F,17.4,0x00c000,-34.8,0.00e-0
1664610734,C;S;V;F,17.2,0x00c000,-34.8,0.00e-0
1664610735,C;S;V;F,16.8,0x00c000,-35.1,
1664610736,C;S;V;F,16.6,0x00c000,-35.7,0.00e-0
1664610737,,16.6,0x00c000,-36.4,0.00e-0
1664610738,C;S;V;F,15.6,0x00c000,-37.1,0.00e-0
1664610739,C;S;V;F,,0x00c000,-37.5,0.00e-0
1664610740,C;S;V;F,15.3,0x00c000,-37.8,0.00e-0
1664610741,C;S;V;F,15.0,0x00c000,,0.00e-0
1664610742,C;S;V;F,14.9,0x00c000,-37.9,0.00e-0
1664610743,C;S;V;F,14.7,0x00c000,-37.8,0.00e-0
1664610744,C;S;V;F,14.7,0x00c000,-37.8,0.00e-0
1664610745,C;S;V;F,14.1,0x00c000,-38.0,0.00e-0
1664610746,C;S;V;F,14.4,0x00c000,-38.1,0.00e-0
1664610747,C;S;V;F,14.3,0x00c000,-38.4,
1664610748,,14.4,0x00c000,-38.4,0.00e-0
1664610749,C;S;V;F,,0x00c000,-38.6,0.00e-0
1664610750,C;S;V;F,14.2,0x00c000,-38.7,0.00e-0
1664610751,C;S;V;F,14.2,0x00c000,,0.00e-0
1664610752,C;S;V;F,14.1,0x00c000,-38.6,0.00e-0
1664610753,C;S;V;F,14.5,0x00c000,-38.3,0.00e-0
1664610754,C;S;V;F,15.4,0x00c000,-37.0,0.00e-0
1664610756,,16.7,0x00c000,-34.5,
1664610757,C;S;V;F,18.1,0x00c000,-34.0,0.00e-0
1664610758,C;S;V;F,,0x00c000,-33.4,0.00e-0
1664610759,C;S;V;F,18.1,0x00c000,-33.3,0.00e-0
1664610760,C;S;V;F,18.3,0x00c000,,0.00e-0
1664610761,C;S;V;F,18.3,0x00c000,-33.4,0.00e-0
1664610762,C;S;V;F,18.1,0x00c000,-33.4,0.00e-0
1664610763,C;S;V;F,18.4,0x00c000,-33.4,0.00e-0
1664610764,C;S;V;F,18.1,0x00c000,-33.5,0.00e-0
1664610765,C;S;V;F,18.2,0x00c000,-33.5,0.00e-0
1664610766,,17.9,0x00c000,-33.8,
1664610767,C;S;V;F,18.2,0x00c000,-33.9,0.00e-0
1664610768,C;S;V;F,,0x00c000,-33.9,0.00e-0
1664610769,C;S;V;F,17.8,0x00c000,,0.00e-0
1664610770,C;S;V;F,17.7,0x00c000,-34.0,0.00e-0
1664610771,C;S;V;F,17.9,0x00c000,-34.0,0.00e-0
1664610772,C;S;V;F,17.8,0x00c000,-34.2,0.00e-0
1664610773,C;S;V;F,17.7,0x00c000,-34.6,0.00e-0
1664610774,C;S;V;F,17.1,0x00c000,-34.8,0.00e-0
1664610775,C;S;V;F,16.9,0x00c000,-35.2,0.00e-0
1664610776,C;S;V;F,17.0,0x00c000,-35.2,0.00e-0
1664610777,,17.4,0x00c000,-34.7,
1664610778,C;S;V;F,17.6,0x00c000,-34.0,0.00e-0
1664610779,C;S;V;F,18.0,0x00c000,-33.3,0.00e-0
1664610780,C;S;V;F,,0x00c000,-32.5,0.00e-0
1664610781,C;S;V;F,18.5,0x00c000,,0.00e-0
1664610782,C;S;V;F,19.1,0x00c000,-32.1,0.00e-0
1664610783,C;S;V;F,19.4,0x00c000,-32.0,0.00e-0
1664610784,C;S;V;F,19.2,0x00c000,-31.5,0.00e-0
1664610785,C;S;V;F,19.4,0x00c000,-31.6,0.00e-0
1664610786,C;S;V;F,19.2,0x00c000,-31.6,0.00e-0
1664610787,C;S;V;F,19.1,0x00c000,-32.1,0.00e-0
1664610788,C;S;V;F,18.8,0x00c000,-32.8,0.00e-0
1664610789,C;S;V;F,18.5,0x00c000,-33.5,0.00e-0
1664610790,,17.9,0x00c000,-34.0,
1664610791,C;S;V;F,17.6,0x00c000,-34.8,0.00e-0
1664610792,C;S;V;F,17.1,0x00c000,-35.3,0.00e-0
1664610793,C;S;V;F,16.8,0x00c000,-35.5,0.00e-0
1664610794,C;S;V;F,,0x00c000,-35.6,0.00e-0
1664610795,C;S;V;F,16.9,0x00c000,,0.00e-0
1664610796,C;S;V;F,16.2,0x00c000,-36.2,0.00e-0
1664610797,C;S;V;F,15.9,0x00c000,-36.3,0.00e-0
1664610798,C;S;V;F,15.9,0x00c000,-36.4,0.00e-0
1664610799,C;S;V;F,16.3,0x00c000,-36.2,0.00e-0
1664610800,C;S;V;F,16.7,0x00c000,-35.6,0.00e-0
1664610801,C;S;V;F,16.7,0x00c000,-35.6,0.00e-0
1664610802,C;S;V;F,17.0,0x00c000,-35.2,0.00e-0
1664610803,C;S;V;F,17.4,0x00c000,-35.0,0.00e-0
1664610804,C;S;V;F,16.9,0x00c000,-35.1,
1664610805,,16.4,0x00c000,-36.0,0.00e-0
1664610806,C;S;V;F,16.2,0x00c000,-36.3,0.00e-0
1664610807,C;S;V;F,,0x00c000,-36.4,0.00e-0
1664610808,C;S;V;F,16.0,0x00c000,-36.4,0.00e-0
1664610809,C;S;V;F,16.1,0x00c000,,0.00e-0
1664610810,C;S;V;F,15.8,0x00c000,-36.7,0.00e-0
1664610811,C;S;V;F,15.5,0x00c000,-37.0,0.00e-0
1664610812,C;S;V;F,15.2,0x00c000,-37.3,0.00e-0
1664610813,C;S;V;F,15.3,0x00c000,-37.0,0.00e-0
1664610814,C;S;V;F,15.6,0x00c000,-36.4,0.00e-0
1664610815,C;S;V;F,15.9,0x00c000,-36.1,0.00e-0
1664610816,C;S;V;F,16.6,0x00c000,-35.5,
1664610817,,,,,0.00e-0
1664610819,C;S;V;F,16.8,0x00c000,-35.0,0.00e-0
1664610820,C;S;V;F,17.2,0x00c000,-34.4,0.00e-0
1664610821,C;S;V;F,17.6,0x00c000,-33.9,
1664610822,,18.0,0x00c000,-33.6,0.00e-0
1664610823,C;S;V;F,18.1,0x00c000,-33.9,0.00e-0
1664610824,C;S;V;F,17.6,0x00c000,-34.3,0.00e-0
1664610825,C;S;V;F,,0x00c000,-35.7,0.00e-0
1664610826,C;S;V;F,16.7,0x00c000,-37.6,0.00e-0
1664610827,C;S;V;F,14.8,0x00c000,,0.00e-0
1664610828,C;S;V;F,13.5,0x00c000,-38.9,0.00e-0
1664610829,C;S;V;F,14.5,0x00c000,-38.0,0.00e-0
1664610830,C;S;V;F,15.2,0x00c000,-36.8,0.00e-0
1664610852,C;S;V;F,18.1,0x00c000,-33.7,0.00e-0
1664610853,C;S;V;F,17.6,0x00c000,-34.8,0.00e-0
1664610854,C;S;V;F,16.9,0x00c000,-35.8,0.00e-0
1664610855,C;S;V;F,16.0,0x00c000,-36.9,0.00e-0
1664610856,C;S;V;F,14.9,0x00c000,-37.9,
1664610857,,14.9,0x00c000,-36.7,0.00e-0
1664610858,C;S;V;F,16.9,0x00c000,-35.3,0.00e-0
1664610859,C;S;V;F,17.6,0x00c000,-34.4,0.00e-0
1664610860,C;S;V;F,,0x00c000,-33.9,0.00e-0
1664610861,C;S;V;F,17.6,0x00c000,-35.1,0.00e-0
1664610862,C;S;V;F,17.1,0x00c000,,0.00e-0
1664610863,C;S;V;F,16.8,0x00c000,-35.5,0.00e-0
1664610864,C;S;V;F,17.0,0x00c000,-35.3,0.00e-0
1664610865,C;S;V;F,15.9,0x00c000,-36.7,0.00e-0
1664610866,C;S;V;F,15.6,0x00c000,-37.1,0.00e-0
1664610867,C;S;V;F,15.6,0x00c000,-37.0,0.00e-0
1664610868,C;S;V;F,15.8,0x00c000,-36.6,0.00e-0
1664610869,C;S;V;F,16.0,0x00c000,-36.0,
1664610870,,16.3,0x00c000,-36.3,0.00e-0
1664610871,C;S;V;F,15.8,0x00c000,-36.4,0.00e-0
1664610872,C;S;V;F,16.2,0x00c000,-35.5,0.00e-0
1664610873,C;S;V;F,,0x00c000,-35.5,0.00e-0
1664610874,C;S;V;F,16.9,0x00c000,-36.4,0.00e-0
1664610875,C;S;V;F,16.4,0x00c000,,0.00e-0
1664610876,C;S;V;F,16.5,0x00c000,-35.9,0.00e-0
1664610877,C;S;V;F,16.8,0x00c000,-35.4,0.00e-0
1664610878,C;S;V;F,17.1,0x00c000,-35.1,0.00e-0
1664610879,C;S;V;F,16.8,0x00c000,-35.4,0.00e-0
1664610881,,,0x00c000,-38.8,
1664610882,C;S;V;F,13.3,0x00c000,-36.3,0.00e-0
1664610883,C;S;V;F,15.9,0x00c000,,0.00e-0
1664610884,C;S;V;F,13.2,0x00c000,-39.2,0.00e-0
1664610885,C;S;V;F,10.8,0x00c000,-41.6,1.40e-5
1664610886,C;S;V;F,12.3,0x00c000,-40.4,2.22e-5
1664610887,C;S;V;F,14.1,0x00c000,-38.3,1.21e-6
1664610888,C;S;V;F,14.9,0x00c000,-37.2,0.00e-0
1664610889,,15.5,0x00c000,-36.9,
1664610890,C;S;V;F,15.6,0x00c000,-37.2,0.00e-0
1664610891,C;S;V;F,15.9,0x00c000,-36.1,0.00e-0
1664610892,C;S;V;F,17.3,0x00c000,-33.7,0.00e-0
1664610893,C;S;V;F,,0x00c000,-33.2,0.00e-0
1664610894,C;S;V;F,18.4,0x00c000,-33.2,0.00e-0
1664610895,C;S;V;F,18.4,0x00c000,,0.00e-0
1664610896,C;S;V;F,18.6,0x00c000,-33.0,0.00e-0
1664610897,C;S;V;F,18.9,0x00c000,-32.5,0.00e-0
1664610898,C;S;V;F,18.9,0x00c000,-32.4,0.00e-0
1664610899,C;S;V;F,19.0,0x00c000,-32.2,0.00e-0
1664610900,C;S;V;F,18.6,0x00c000,-32.4,0.00e-0
1664610901,C;S;V;F,17.9,0x00c000,-33.6,0.00e-0
1664610902,C;S;V;F,17.2,0x00c000,-35.2,0.00e-0
1664610903,,16.6,0x00c000,-35.9,
1664610904,C;S;V;F,16.7,0x00c000,-35.8,0.00e-0
1664610905,C;S;V;F,16.6,0x00c000,-36.1,0.00e-0
1664610906,C;S;V;F,15.8,0x00c000,-36.8,0.00e-0
1664610907,C;S;V;F,,0x00c000,-37.3,0.00e-0
1664610908,C;S;V;F,15.7,0x00c000,,0.00e-0
1664610909,C;S;V;F,14.8,0x00c000,-37.9,0.00e-0
1664610910,C;S;V;F,13.8,0x00c000,-39.7,0.00e-0
1664610911,C;S;V;F,12.8,0x00c000,-39.1,1.51e-7
1664610912,C;S;V;F,15.9,0x00c000,-37.2,1.51e-7
1664610913,C;S;V;F,16.5,0x00c000,-35.9,0.00e-0
1664610914,C;S;V;F,16.6,0x00c000,-35.7,0.00e-0
1664610915,C;S;V;F,17.2,0x00c000,-35.3,
1664610916,,17.6,0x00c000,-34.8,0.00e-0
1664610917,C;S;V;F,17.5,0x00c000,-34.8,0.00e-0
1664610918,C;S;V;F,17.3,0x00c000,-35.6,0.00e-0
1664610919,C;S;V;F,,0x00c000,-35.4,0.00e-0
1664610920,C;S;V;F,17.0,0x00c000,-34.0,0.00e-0
1664610921,C;S;V;F,17.5,0x00c000,,0.00e-0
1664610922,C;S;V;F,18.1,0x00c000,-33.1,0.00e-0
1664610923,C;S;V;F,18.4,0x00c000,-33.6,0.00e-0
1664610924,C;S;V;F,18.0,0x00c000,-34.5,0.00e-0
1664610925,C;S;V;F,16.3,0x00c000,-36.0,0.00e-0
1664610926,C;S;V;F,16.1,0x00c000,-36.7,0.00e-0
1664610927,C;S;V;F,16.0,0x00c000,-36.6,0.00e-0
1664610928,C;S;V;F,15.6,0x00c000,-37.1,
1664610929,,15.6,0x00c000,-36.9,0.00e-0
1664610930,C;S;V;F,15.7,0x00c000,-37.0,0.00e-0
1664610931,C;S;V;F,15.9,0x00c000,-36.4,0.00e-0
1664610932,C;S;V;F,,0x00c000,-37.5,0.00e-0
1664610933,C;S;V;F,15.1,0x00c000,,0.00e-0
1664610934,C;S;V;F,13.4,0x00c000,-40.0,4.54e-7
1664610935,C;S;V;F,10.6,0x00c000,-42.1,4.18e-5
1664610936,C;S;V;F,11.4,0x00c000,-40.8,8.09e-5
1664610937,C;S;V;F,14.0,0x00c000,-37.3,1.40e-5
1664610938,C;S;V;F,16.4,0x00c000,-35.3,0.00e-0
1664610939,C;S;V;F,17.2,0x00c000,-34.7,
1664610940,,17.6,0x00c000,-35.0,0.00e-0
1664610941,C;S;V;F,16.1,0x00c000,-36.1,0.00e-0
1664610942,C;S;V;F,,0x00c000,,0.00e-0
1664610944,C;S;V;F,14.9,0x00c000,-37.9,0.00e-0
1664610945,,14.7,0x00c000,-37.9,
1664610946,C;S;V;F,15.1,0x00c000,-36.9,0.00e-0
1664610947,C;S;V;F,,0x00c000,,0.00e-0
1664610948,C;S;V;F,16.5,0x00c000,-35.6,0.00e-0
1664610949,C;S;V;F,17.2,0x00c000,-34.3,0.00e-0
1664610950,C;S;V;F,17.9,0x00c000,-33.6,0.00e-0
1664610951,C;S;V;F,17.9,0x00c000,-33.5,0.00e-0
1664610952,C;S;V;F,17.3,0x00c000,-34.0,0.00e-0
1664610953,C;S;V;F,17.2,0x00c000,-34.3,0.00e-0
1664610954,C;S;V;F,16.6,0x00c000,-35.3,
1664610955,,15.7,0x00c000,-36.9,0.00e-0
1664610956,C;S;V;F,14.9,0x00c000,-37.9,0.00e-0
1664610957,C;S;V;F,14.7,0x00c000,-38.0,0.00e-0
1664610958,C;S;V;F,,0x00c000,-37.8,0.00e-0
1664610959,C;S;V;F,14.8,0x00c000,,0.00e-0
1664610960,C;S;V;F,15.4,0x00c000,-37.1,0.00e-0
1664610961,C;S;V;F,15.6,0x00c000,-36.7,0.00e-0
1664610962,C;S;V;F,15.7,0x00c000,-36.6,0.00e-0
1664610963,C;S;V;F,15.9,0x00c000,-36.7,0.00e-0
1664610964,C;S;V;F,15.8,0x00c000,-36.8,0.00e-0
1664610965,C;S;V;F,15.3,0x00c000,-37.2,0.00e-0
1664610966,C;S;V;F,15.0,0x00c000,-38.1,
1664610967,,14.3,0x00c000,-39.0,0.00e-0
1664610968,C;S;V;F,12.7,0x00c000,-39.9,0.00e-0
1664610969,C;S;V;F,,0x00c000,-40.3,0.00e-0
1664610970,C;S;V;F,12.4,0x00c000,,9.09e-7
1664610971,C;S;V;F,12.2,0x00c000,-40.5,2.42e-6
1664610972,C;S;V;F,12.1,0x00c000,-40.4,3.32e-6
1664610973,C;S;V;F,12.5,0x00c000,-40.1,2.42e-6
1664610974,C;S;V;F,12.9,0x00c000,-39.8,7.57e-7
1664610975,C;S;V;F,13.2,0x00c000,-39.1,3.03e-7
1664610976,C;S;V;F,13.9,0x00c000,-38.6,0.00e-0
1664610977,C;S;V;F,14.2,0x00c000,-38.3,0.00e-0
1664610978,,14.4,0x00c000,-38.3,
1664610979,C;S;V;F,14.5,0x00c000,-38.0,0.00e-0
1664610980,C;S;V;F,14.5,0x00c000,-38.1,0.00e-0
1664610981,C;S;V;F,,0x00c000,-38.6,0.00e-0
1664610982,C;S;V;F,14.3,0x00c000,,0.00e-0
1664610983,C;S;V;F,13.7,0x00c000,-38.9,0.00e-0
1664610984,C;S;V;F,13.2,0x00c000,-39.4,0.00e-0
1664610985,C;S;V;F,12.5,0x00c000,-40.1,1.51e-7
1664610986,C;S;V;F,12.1,0x00c000,-40.4,1.05e-6
1664610987,C;S;V;F,11.4,0x00c000,-41.0,5.14e-6
1664610988,C;S;V;F,11.2,0x00c000,-41.5,1.25e-5
1664610989,C;S;V;F,10.9,0x00c000,-41.5,3.04e-5
1664610990,,10.7,0x00c000,-41.6,
1664610991,C;S;V;F,,0x00c000,-41.3,4.66e-5
1664610992,C;S;V;F,10.8,0x00c000,-41.0,4.28e-5
1664610993,C;S;V;F,11.5,0x00c000,,3.00e-5
1664610994,C;S;V;F,12.0,0x00c000,-40.5,1.40e-5
1664610995,C;S;V;F,12.0,0x00c000,-39.9,2.57e-6
1664610996,C;S;V;F,13.1,0x00c000,-39.2,3.03e-7
1664610997,C;S;V;F,14.3,0x00c000,-38.4,0.00e-0
1664610998,,14.7,0x00c000,-37.9,
1664610999,C;S;V;F,15.0,0x00c000,-37.7,0.00e-0
1664611000,C;S;V;F,15.0,0x00c000,-37.5,0.00e-0
1664611001,C;S;V;F,,0x00c000,,0.00e-0
1664611002,C;S;V;F,14.9,0x00c000,-37.6,0.00e-0
1664611003,C;S;V;F,14.9,0x00c000,-38.0,0.00e-0
1664611004,C;S;V;F,14.3,0x00c000,-38.0,0.00e-0
1664611007,C;S;V;F,13.8,0x00c000,-38.8,0.00e-0
1664611008,C;S;V;F,13.6,0x00c000,-39.1,0.00e-0
1664611009,C;S;V;F,13.7,0x00c000,-39.1,
1664611010,,13.5,0x00c000,-39.3,0.00e-0
1664611011,C;S;V;F,13.7,0x00c000,-39.1,0.00e-0
1664611012,C;S;V;F,,0x00c000,-38.7,0.00e-0
1664611013,C;S;V;F,13.9,0x00c000,-38.5,0.00e-0
1664611014,C;S;V;F,14.0,0x00c000,-38.4,0.00e-0
1664611015,C;S;V;F,14.1,0x00c000,,0.00e-0
1664611016,C;S;V;F,14.5,0x00c000,-38.0,0.00e-0
1664611017,C;S;V;F,14.6,0x00c000,-37.8,0.00e-0
1664611018,C;S;V;F,15.1,0x00c000,-37.3,0.00e-0
1664611019,C;S;V;F,15.5,0x00c000,-36.9,0.00e-0
1664611020,C;S;V;F,15.8,0x00c000,-36.6,0.00e-0
1664611021,C;S;V;F,16.1,0x00c000,-36.1,0.00e-0
1664611022,C;S;V;F,16.6,0x00c000,-35.7,0.00e-0
1664611023,C;S;V;F,16.4,0x00c000,-35.3,0.00e-0
1664611024,,16.9,0x00c000,-35.2,
1664611025,C;S;V;F,17.0,0x00c000,-35.2,0.00e-0
1664611026,C;S;V;F,,0x00c000,-35.1,0.00e-0
1664611027,C;S;V;F,16.8,0x00c000,-35.2,0.00e-0
1664611028,C;S;V;F,16.8,0x00c000,,0.00e-0
1664611029,C;S;V;F,17.0,0x00c000,-35.2,0.00e-0
1664611030,C;S;V;F,17.0,0x00c000,-35.1,0.00e-0